Time,TemperatureF,DewpointF,PressureIn,WindDirection,WindDirectionDegrees,WindSpeedMPH,WindSpeedGustMPH,Humidity,HourlyPrecipIn,Conditions,Clouds,dailyrainin,SoftwareType,DateUTC
2013-01-05 00:03:00,34.3,27.2,30.27,SSE,163,0.0,0.0,75,0.00,,,0.00,Wunderground v.1.15,2013-01-05 07:03:00,
2013-01-05 00:08:00,34.1,27.0,30.28,SSE,163,0.0,0.0,75,0.00,,,0.00,Wunderground v.1.15,2013-01-05 07:08:00,
2013-01-05 00:14:00,33.8,26.7,30.28,SSE,163,0.0,0.0,75,0.00,,,0.00,Wunderground v.1.15,2013-01-05 07:14:00,
2013-01-05 00:20:00,33.5,26.4,30.28,SSE,163,0.0,0.0,75,0.00,,,0.00,Wunderground v.1.15,2013-01-05 07:20:00,
2013-01-05 00:25:00,33.4,27.0,30.28,SSE,163,0.0,0.0,77,0.00,,,0.00,Wunderground v.1.15,2013-01-05 07:25:00,
2013-01-05 00:31:00,33.3,26.5,30.28,SSE,163,0.0,0.0,76,0.00,,,0.00,Wunderground v.1.15,2013-01-05 07:31:00,
2013-01-05 00:36:00,33.2,26.8,30.28,SSE,163,0.0,0.0,77,0.00,,,0.00,Wunderground v.1.15,2013-01-05 07:36:00,
2013-01-05 00:42:00,33.6,27.2,30.28,SSE,163,0.0,0.0,77,0.00,,,0.00,Wunderground v.1.15,2013-01-05 07:42:00,
2013-01-05 00:47:00,33.8,27.0,30.28,SSE,163,0.0,0.0,76,0.00,,,0.00,Wunderground v.1.15,2013-01-05 07:47:00,
2013-01-05 00:53:00,34.1,27.3,30.28,SSE,163,0.0,0.0,76,0.00,,,0.00,Wunderground v.1.15,2013-01-05 07:53:00,
2013-01-05 00:58:00,34.6,27.5,30.28,SSE,163,0.0,0.0,75,0.00,,,0.00,Wunderground v.1.15,2013-01-05 07:58:00,
2013-01-05 01:04:00,35.2,28.1,30.28,SSE,163,0.0,0.0,75,0.00,,,0.00,Wunderground v.1.15,2013-01-05 08:04:00,
2013-01-05 01:10:00,35.7,27.9,30.28,SSE,163,0.0,0.0,73,0.00,,,0.00,Wunderground v.1.15,2013-01-05 08:10:00,
2013-01-05 01:16:00,35.9,27.7,30.28,SSE,163,0.0,0.0,72,0.00,,,0.00,Wunderground v.1.15,2013-01-05 08:16:00,
2013-01-05 01:21:00,36.2,28.0,30.28,SSE,163,0.0,0.0,72,0.00,,,0.00,Wunderground v.1.15,2013-01-05 08:21:00,
2013-01-05 01:27:00,36.4,27.9,30.28,SSE,163,0.0,0.0,71,0.00,,,0.00,Wunderground v.1.15,2013-01-05 08:27:00,
2013-01-05 01:33:00,36.3,27.8,30.28,SSE,163,0.0,0.0,71,0.00,,,0.00,Wunderground v.1.15,2013-01-05 08:33:00,
2013-01-05 01:38:00,36.0,27.5,30.28,SSE,163,0.0,0.0,71,0.00,,,0.00,Wunderground v.1.15,2013-01-05 08:38:00,
2013-01-05 01:44:00,35.5,27.0,30.28,SSE,163,0.0,0.0,71,0.00,,,0.00,Wunderground v.1.15,2013-01-05 08:44:00,
2013-01-05 01:49:00,35.0,27.2,30.28,SSE,163,0.0,0.0,73,0.00,,,0.00,Wunderground v.1.15,2013-01-05 08:49:00,
2013-01-05 01:54:00,34.8,27.4,30.28,SSE,163,0.0,0.0,74,0.00,,,0.00,Wunderground v.1.15,2013-01-05 08:54:00,
2013-01-05 02:00:00,34.8,27.7,30.28,SSE,163,0.0,0.0,75,0.00,,,0.00,Wunderground v.1.15,2013-01-05 09:00:00,
2013-01-05 02:05:00,35.0,27.9,30.28,SSE,163,0.0,0.0,75,0.00,,,0.00,Wunderground v.1.15,2013-01-05 09:05:00,
2013-01-05 02:10:00,35.4,27.9,30.28,SSE,163,0.0,0.0,74,0.00,,,0.00,Wunderground v.1.15,2013-01-05 09:10:00,
2013-01-05 02:15:00,35.8,28.0,30.28,SSE,163,0.0,0.0,73,0.00,,,0.00,Wunderground v.1.15,2013-01-05 09:15:00,
2013-01-05 02:20:00,35.8,27.7,30.28,SSE,163,0.0,0.0,72,0.00,,,0.00,Wunderground v.1.15,2013-01-05 09:20:00,
2013-01-05 02:25:00,35.6,27.8,30.28,SSE,163,0.0,0.0,73,0.00,,,0.00,Wunderground v.1.15,2013-01-05 09:25:00,
2013-01-05 02:30:00,35.5,27.7,30.28,SSE,163,0.0,0.0,73,0.00,,,0.00,Wunderground v.1.15,2013-01-05 09:30:00,
2013-01-05 02:35:00,35.3,27.8,30.29,SSE,163,0.0,0.0,74,0.00,,,0.00,Wunderground v.1.15,2013-01-05 09:35:00,
2013-01-05 02:40:00,35.1,27.3,30.29,SSE,163,0.0,0.0,73,0.00,,,0.00,Wunderground v.1.15,2013-01-05 09:40:00,
2013-01-05 02:45:00,34.9,27.5,30.29,SSE,163,0.0,0.0,74,0.00,,,0.00,Wunderground v.1.15,2013-01-05 09:45:00,
2013-01-05 02:50:00,34.6,27.2,30.29,SSE,163,0.0,0.0,74,0.00,,,0.00,Wunderground v.1.15,2013-01-05 09:50:00,
2013-01-05 02:55:00,34.3,27.2,30.29,SSE,163,0.0,0.0,75,0.00,,,0.00,Wunderground v.1.15,2013-01-05 09:55:00,
2013-01-05 03:00:00,34.1,27.3,30.29,SSE,163,0.0,0.0,76,0.00,,,0.00,Wunderground v.1.15,2013-01-05 10:00:00,
2013-01-05 03:05:00,34.1,27.3,30.30,SSE,163,0.0,0.0,76,0.00,,,0.00,Wunderground v.1.15,2013-01-05 10:05:00,
2013-01-05 03:10:00,33.9,27.1,30.30,SSE,163,0.0,0.0,76,0.00,,,0.00,Wunderground v.1.15,2013-01-05 10:10:00,
2013-01-05 03:15:00,33.7,26.9,30.30,SSE,163,0.0,0.0,76,0.00,,,0.00,Wunderground v.1.15,2013-01-05 10:15:00,
2013-01-05 03:20:00,33.2,26.5,30.30,SSE,163,0.0,0.0,76,0.00,,,0.00,Wunderground v.1.15,2013-01-05 10:20:00,
2013-01-05 03:25:00,32.7,26.3,30.30,SSE,163,0.0,0.0,77,0.00,,,0.00,Wunderground v.1.15,2013-01-05 10:25:00,
2013-01-05 03:30:00,32.4,26.3,30.30,SSE,163,0.0,0.0,78,0.00,,,0.00,Wunderground v.1.15,2013-01-05 10:30:00,
2013-01-05 03:35:00,32.1,26.0,30.30,SSE,163,0.0,0.0,78,0.00,,,0.00,Wunderground v.1.15,2013-01-05 10:35:00,
2013-01-05 03:41:00,31.7,25.9,30.31,SSE,163,0.0,0.0,79,0.00,,,0.00,Wunderground v.1.15,2013-01-05 10:41:00,
2013-01-05 03:46:00,31.5,25.7,30.30,SSE,163,0.0,0.0,79,0.00,,,0.00,Wunderground v.1.15,2013-01-05 10:46:00,
2013-01-05 03:51:00,31.1,25.3,30.30,SSE,163,0.0,0.0,79,0.00,,,0.00,Wunderground v.1.15,2013-01-05 10:51:00,
2013-01-05 03:56:00,30.7,25.3,30.30,SSE,163,0.0,0.0,80,0.00,,,0.00,Wunderground v.1.15,2013-01-05 10:56:00,
2013-01-05 04:01:00,30.4,25.0,30.30,SSE,163,0.0,0.0,80,0.00,,,0.00,Wunderground v.1.15,2013-01-05 11:01:00,
2013-01-05 04:06:00,30.1,25.0,30.30,SSE,163,0.0,0.0,81,0.00,,,0.00,Wunderground v.1.15,2013-01-05 11:06:00,
2013-01-05 04:11:00,30.1,25.6,30.30,SSE,163,0.0,0.0,83,0.00,,,0.00,Wunderground v.1.15,2013-01-05 11:11:00,
2013-01-05 04:16:00,30.2,25.7,30.30,SSE,163,0.0,0.0,83,0.00,,,0.00,Wunderground v.1.15,2013-01-05 11:16:00,
2013-01-05 04:21:00,30.3,25.8,30.30,SSE,163,0.0,0.0,83,0.00,,,0.00,Wunderground v.1.15,2013-01-05 11:21:00,
2013-01-05 04:26:00,30.2,25.4,30.30,SSE,163,0.0,0.0,82,0.00,,,0.00,Wunderground v.1.15,2013-01-05 11:26:00,
2013-01-05 04:31:00,30.1,25.6,30.29,SSE,163,0.0,0.0,83,0.00,,,0.00,Wunderground v.1.15,2013-01-05 11:31:00,
2013-01-05 04:36:00,30.1,25.6,30.30,SSE,163,0.0,0.0,83,0.00,,,0.00,Wunderground v.1.15,2013-01-05 11:36:00,
2013-01-05 04:41:00,30.1,25.6,30.30,SSE,163,0.0,0.0,83,0.00,,,0.00,Wunderground v.1.15,2013-01-05 11:41:00,
2013-01-05 04:46:00,29.7,24.9,30.30,SSE,163,0.0,0.0,82,0.00,,,0.00,Wunderground v.1.15,2013-01-05 11:46:00,
2013-01-05 04:51:00,29.6,25.4,30.30,SSE,163,0.0,0.0,84,0.00,,,0.00,Wunderground v.1.15,2013-01-05 11:51:00,
2013-01-05 04:56:00,29.8,25.6,30.30,SSE,163,0.0,0.0,84,0.00,,,0.00,Wunderground v.1.15,2013-01-05 11:56:00,
2013-01-05 05:01:00,29.9,25.7,30.30,SSE,163,0.0,0.0,84,0.00,,,0.00,Wunderground v.1.15,2013-01-05 12:01:00,
2013-01-05 05:06:00,29.8,25.3,30.30,SSE,163,0.0,0.0,83,0.00,,,0.00,Wunderground v.1.15,2013-01-05 12:06:00,
2013-01-05 05:11:00,29.5,25.0,30.30,SSE,163,0.0,0.0,83,0.00,,,0.00,Wunderground v.1.15,2013-01-05 12:11:00,
2013-01-05 05:16:00,29.5,25.3,30.30,SSE,163,0.0,0.0,84,0.00,,,0.00,Wunderground v.1.15,2013-01-05 12:16:00,
2013-01-05 05:21:00,29.6,25.6,30.30,SSE,163,0.0,0.0,85,0.00,,,0.00,Wunderground v.1.15,2013-01-05 12:21:00,
2013-01-05 05:26:00,29.7,25.7,30.30,SSE,163,0.0,0.0,85,0.00,,,0.00,Wunderground v.1.15,2013-01-05 12:26:00,
2013-01-05 05:31:00,29.9,25.9,30.30,SSE,163,0.0,0.0,85,0.00,,,0.00,Wunderground v.1.15,2013-01-05 12:31:00,
2013-01-05 05:36:00,29.8,25.6,30.30,SSE,163,0.0,0.0,84,0.00,,,0.00,Wunderground v.1.15,2013-01-05 12:36:00,
2013-01-05 05:41:00,29.8,25.6,30.31,SSE,163,0.0,0.0,84,0.00,,,0.00,Wunderground v.1.15,2013-01-05 12:41:00,
2013-01-05 05:46:00,29.8,25.6,30.31,SSE,163,0.0,0.0,84,0.00,,,0.00,Wunderground v.1.15,2013-01-05 12:46:00,
2013-01-05 05:51:00,29.9,25.9,30.31,SSE,163,0.0,0.0,85,0.00,,,0.00,Wunderground v.1.15,2013-01-05 12:51:00,
2013-01-05 05:56:00,30.0,26.0,30.31,SSE,163,0.0,0.0,85,0.00,,,0.00,Wunderground v.1.15,2013-01-05 12:56:00,
2013-01-05 06:01:00,30.2,26.2,30.31,SSE,163,0.0,0.0,85,0.00,,,0.00,Wunderground v.1.15,2013-01-05 13:01:00,
2013-01-05 06:06:00,30.4,26.4,30.31,SSE,163,0.0,0.0,85,0.00,,,0.00,Wunderground v.1.15,2013-01-05 13:06:00,
2013-01-05 06:11:00,30.3,26.0,30.31,SSE,163,0.0,0.0,84,0.00,,,0.00,Wunderground v.1.15,2013-01-05 13:11:00,
2013-01-05 06:16:00,30.7,27.0,30.31,SSE,163,0.0,0.0,86,0.00,,,0.00,Wunderground v.1.15,2013-01-05 13:16:00,
2013-01-05 06:21:00,31.9,27.9,30.31,SSE,163,0.0,0.0,85,0.00,,,0.00,Wunderground v.1.15,2013-01-05 13:21:00,
2013-01-05 06:26:00,32.8,28.2,30.32,SSE,163,0.0,0.0,83,0.00,,,0.00,Wunderground v.1.15,2013-01-05 13:26:00,
2013-01-05 06:31:00,33.2,28.0,30.32,SSE,163,0.0,0.0,81,0.00,,,0.00,Wunderground v.1.15,2013-01-05 13:31:00,
2013-01-05 06:36:00,33.1,27.3,30.32,SSE,163,0.0,0.0,79,0.00,,,0.00,Wunderground v.1.15,2013-01-05 13:36:00,
2013-01-05 06:41:00,32.8,27.0,30.32,SSE,163,0.0,0.0,79,0.00,,,0.00,Wunderground v.1.15,2013-01-05 13:41:00,
2013-01-05 06:46:00,32.3,26.5,30.33,SSE,163,0.0,0.0,79,0.00,,,0.00,Wunderground v.1.15,2013-01-05 13:46:00,
2013-01-05 06:51:00,31.9,26.4,30.33,SSE,163,0.0,0.0,80,0.00,,,0.00,Wunderground v.1.15,2013-01-05 13:51:00,
2013-01-05 06:56:00,31.5,26.0,30.33,SSE,163,0.0,0.0,80,0.00,,,0.00,Wunderground v.1.15,2013-01-05 13:56:00,
2013-01-05 07:01:00,31.0,25.6,30.33,SSE,163,0.0,0.0,80,0.00,,,0.00,Wunderground v.1.15,2013-01-05 14:01:00,
2013-01-05 07:06:00,30.4,25.3,30.33,SSE,163,0.0,0.0,81,0.00,,,0.00,Wunderground v.1.15,2013-01-05 14:06:00,
2013-01-05 07:11:00,29.8,25.0,30.33,SSE,163,0.0,0.0,82,0.00,,,0.00,Wunderground v.1.15,2013-01-05 14:11:00,
2013-01-05 07:16:00,29.4,24.9,30.33,SSE,163,0.0,0.0,83,0.00,,,0.00,Wunderground v.1.15,2013-01-05 14:16:00,
2013-01-05 07:21:00,29.1,24.9,30.34,SSE,163,0.0,0.0,84,0.00,,,0.00,Wunderground v.1.15,2013-01-05 14:21:00,
2013-01-05 07:27:00,29.1,25.2,30.34,SSE,163,0.0,0.0,85,0.00,,,0.00,Wunderground v.1.15,2013-01-05 14:27:00,
2013-01-05 07:32:00,29.3,25.6,30.34,SSE,163,0.0,0.0,86,0.00,,,0.00,Wunderground v.1.15,2013-01-05 14:32:00,
2013-01-05 07:37:00,29.4,25.7,30.34,SSE,163,0.0,0.0,86,0.00,,,0.00,Wunderground v.1.15,2013-01-05 14:37:00,
2013-01-05 07:42:00,29.6,25.9,30.35,SSE,163,0.0,0.0,86,0.00,,,0.00,Wunderground v.1.15,2013-01-05 14:42:00,
2013-01-05 07:47:00,30.1,26.4,30.35,SSE,163,0.0,0.0,86,0.00,,,0.00,Wunderground v.1.15,2013-01-05 14:47:00,
2013-01-05 07:52:00,30.6,26.9,30.34,SSE,163,0.0,0.0,86,0.00,,,0.00,Wunderground v.1.15,2013-01-05 14:52:00,
2013-01-05 07:57:00,31.2,27.2,30.35,SSE,163,0.0,0.0,85,0.00,,,0.00,Wunderground v.1.15,2013-01-05 14:57:00,
2013-01-05 08:02:00,31.9,27.6,30.35,SSE,163,0.0,0.0,84,0.00,,,0.00,Wunderground v.1.15,2013-01-05 15:02:00,
2013-01-05 08:07:00,32.7,28.4,30.35,SSE,163,0.0,0.0,84,0.00,,,0.00,Wunderground v.1.15,2013-01-05 15:07:00,
2013-01-05 08:12:00,33.7,28.8,30.35,SSE,163,0.0,0.0,82,0.00,,,0.00,Wunderground v.1.15,2013-01-05 15:12:00,
2013-01-05 08:17:00,34.8,29.3,30.35,SSE,163,0.0,0.0,80,0.00,,,0.00,Wunderground v.1.15,2013-01-05 15:17:00,
2013-01-05 08:22:00,35.8,29.9,30.35,SSE,163,0.0,0.0,79,0.00,,,0.00,Wunderground v.1.15,2013-01-05 15:22:00,
2013-01-05 08:27:00,37.0,30.5,30.36,SSE,163,0.0,0.0,77,0.00,,,0.00,Wunderground v.1.15,2013-01-05 15:27:00,
2013-01-05 08:32:00,38.0,30.8,30.36,SSE,163,0.0,0.0,75,0.00,,,0.00,Wunderground v.1.15,2013-01-05 15:32:00,
2013-01-05 08:37:00,39.0,31.1,30.36,SSE,163,0.0,0.0,73,0.00,,,0.00,Wunderground v.1.15,2013-01-05 15:37:00,
2013-01-05 08:42:00,40.0,31.0,30.35,SSE,163,0.0,0.0,70,0.00,,,0.00,Wunderground v.1.15,2013-01-05 15:42:00,
2013-01-05 08:47:00,40.7,31.0,30.36,SSE,163,0.0,0.0,68,0.00,,,0.00,Wunderground v.1.15,2013-01-05 15:47:00,
2013-01-05 08:52:00,41.5,30.6,30.36,SSE,163,0.0,0.0,65,0.00,,,0.00,Wunderground v.1.15,2013-01-05 15:52:00,
2013-01-05 08:57:00,41.8,30.5,30.36,SSE,163,4.0,4.0,64,0.00,,,0.00,Wunderground v.1.15,2013-01-05 15:57:00,
2013-01-05 09:02:00,42.1,30.4,30.36,SSE,163,1.0,5.0,63,0.00,,,0.00,Wunderground v.1.15,2013-01-05 16:02:00,
2013-01-05 09:07:00,42.3,31.0,30.35,SSE,163,1.0,5.0,64,0.00,,,0.00,Wunderground v.1.15,2013-01-05 16:07:00,
2013-01-05 09:12:00,42.3,31.0,30.36,SSE,163,0.0,4.0,64,0.00,,,0.00,Wunderground v.1.15,2013-01-05 16:12:00,
2013-01-05 09:17:00,42.2,30.5,30.36,SSE,163,0.0,4.0,63,0.00,,,0.00,Wunderground v.1.15,2013-01-05 16:17:00,
2013-01-05 09:22:00,42.5,30.4,30.36,SSE,163,0.0,2.0,62,0.00,,,0.00,Wunderground v.1.15,2013-01-05 16:22:00,
2013-01-05 09:27:00,42.9,30.8,30.36,SSE,163,0.0,2.0,62,0.00,,,0.00,Wunderground v.1.15,2013-01-05 16:27:00,
2013-01-05 09:32:00,43.5,31.3,30.36,SSE,163,1.0,2.0,62,0.00,,,0.00,Wunderground v.1.15,2013-01-05 16:32:00,
2013-01-05 09:37:00,44.2,31.6,30.36,SSE,163,1.0,4.0,61,0.00,,,0.00,Wunderground v.1.15,2013-01-05 16:37:00,
2013-01-05 09:42:00,44.8,30.9,30.36,SSE,163,1.0,2.0,58,0.00,,,0.00,Wunderground v.1.15,2013-01-05 16:42:00,
2013-01-05 09:47:00,45.4,31.0,30.36,SSE,163,1.0,4.0,57,0.00,,,0.00,Wunderground v.1.15,2013-01-05 16:47:00,
2013-01-05 09:52:00,45.9,31.1,30.36,SSE,163,0.0,1.0,56,0.00,,,0.00,Wunderground v.1.15,2013-01-05 16:52:00,
2013-01-05 09:57:00,46.4,30.2,30.36,SSE,163,0.0,4.0,53,0.00,,,0.00,Wunderground v.1.15,2013-01-05 16:57:00,
2013-01-05 10:02:00,46.7,30.5,30.36,SSE,163,0.0,5.0,53,0.00,,,0.00,Wunderground v.1.15,2013-01-05 17:02:00,
2013-01-05 10:07:00,47.0,30.3,30.36,SSE,163,1.0,6.0,52,0.00,,,0.00,Wunderground v.1.15,2013-01-05 17:07:00,
2013-01-05 10:12:00,47.5,29.8,30.36,SSE,163,4.0,6.0,50,0.00,,,0.00,Wunderground v.1.15,2013-01-05 17:12:00,
2013-01-05 10:17:00,48.0,29.2,30.36,SSE,163,0.0,6.0,48,0.00,,,0.00,Wunderground v.1.15,2013-01-05 17:17:00,
2013-01-05 10:22:00,48.5,29.7,30.36,SSE,163,0.0,5.0,48,0.00,,,0.00,Wunderground v.1.15,2013-01-05 17:22:00,
2013-01-05 10:27:00,48.6,29.8,30.36,SSE,163,2.0,5.0,48,0.00,,,0.00,Wunderground v.1.15,2013-01-05 17:27:00,
2013-01-05 10:32:00,48.8,30.0,30.36,SSE,163,2.0,5.0,48,0.00,,,0.00,Wunderground v.1.15,2013-01-05 17:32:00,
2013-01-05 10:37:00,49.3,29.9,30.36,SSE,158,5.0,6.0,47,0.00,,,0.00,Wunderground v.1.15,2013-01-05 17:37:00,
2013-01-05 10:42:00,49.6,29.6,30.35,SSE,158,2.0,4.0,46,0.00,,,0.00,Wunderground v.1.15,2013-01-05 17:42:00,
2013-01-05 10:47:00,49.9,30.5,30.35,SSE,158,0.0,6.0,47,0.00,,,0.00,Wunderground v.1.15,2013-01-05 17:47:00,
2013-01-05 10:52:00,50.0,29.5,30.35,SSE,158,2.0,4.0,45,0.00,,,0.00,Wunderground v.1.15,2013-01-05 17:52:00,
2013-01-05 10:57:00,50.0,30.0,30.35,SSE,158,0.0,5.0,46,0.00,,,0.00,Wunderground v.1.15,2013-01-05 17:57:00,
2013-01-05 11:02:00,50.2,30.2,30.35,SSE,158,0.0,2.0,46,0.00,,,0.00,Wunderground v.1.15,2013-01-05 18:02:00,
2013-01-05 11:07:00,50.6,30.6,30.35,SSE,158,0.0,5.0,46,0.00,,,0.00,Wunderground v.1.15,2013-01-05 18:07:00,
2013-01-05 11:12:00,51.2,30.6,30.34,SSE,158,0.0,2.0,45,0.00,,,0.00,Wunderground v.1.15,2013-01-05 18:12:00,
2013-01-05 11:17:00,51.5,30.3,30.34,SSE,158,0.0,4.0,44,0.00,,,0.00,Wunderground v.1.15,2013-01-05 18:17:00,
2013-01-05 11:22:00,52.0,29.6,30.34,SSE,158,1.0,5.0,42,0.00,,,0.00,Wunderground v.1.15,2013-01-05 18:22:00,
2013-01-05 11:27:00,52.2,29.2,30.34,SSE,158,5.0,6.0,41,0.00,,,0.00,Wunderground v.1.15,2013-01-05 18:27:00,
2013-01-05 11:32:00,52.5,29.5,30.33,SSE,157,5.0,5.0,41,0.00,,,0.00,Wunderground v.1.15,2013-01-05 18:32:00,
2013-01-05 11:37:00,52.6,28.9,30.33,SSE,157,6.0,6.0,40,0.00,,,0.00,Wunderground v.1.15,2013-01-05 18:37:00,
2013-01-05 11:42:00,53.1,30.0,30.32,SSE,157,2.0,5.0,41,0.00,,,0.00,Wunderground v.1.15,2013-01-05 18:42:00,
2013-01-05 11:47:00,53.6,28.6,30.32,SSE,157,4.0,5.0,38,0.00,,,0.00,Wunderground v.1.15,2013-01-05 18:47:00,
2013-01-05 11:52:00,53.8,28.8,30.32,SSE,156,2.0,7.0,38,0.00,,,0.00,Wunderground v.1.15,2013-01-05 18:52:00,
2013-01-05 11:57:00,53.9,28.2,30.32,SSE,156,0.0,7.0,37,0.00,,,0.00,Wunderground v.1.15,2013-01-05 18:57:00,
2013-01-05 12:02:00,53.9,28.2,30.31,SSE,155,0.0,4.0,37,0.00,,,0.00,Wunderground v.1.15,2013-01-05 19:02:00,
2013-01-05 12:07:00,54.0,28.3,30.31,SSE,155,4.0,4.0,37,0.00,,,0.00,Wunderground v.1.15,2013-01-05 19:07:00,
2013-01-05 12:12:00,54.4,28.0,30.31,SSE,155,0.0,4.0,36,0.00,,,0.00,Wunderground v.1.15,2013-01-05 19:12:00,
2013-01-05 12:17:00,54.9,28.4,30.31,SSE,155,1.0,5.0,36,0.00,,,0.00,Wunderground v.1.15,2013-01-05 19:17:00,
2013-01-05 12:22:00,55.4,28.2,30.30,SSE,155,0.0,4.0,35,0.00,,,0.00,Wunderground v.1.15,2013-01-05 19:22:00,
2013-01-05 12:27:00,56.1,28.1,30.30,SSE,150,4.0,7.0,34,0.00,,,0.00,Wunderground v.1.15,2013-01-05 19:27:00,
2013-01-05 12:32:00,56.5,27.0,30.29,SSE,150,0.0,2.0,32,0.00,,,0.00,Wunderground v.1.15,2013-01-05 19:32:00,
2013-01-05 12:37:00,56.8,27.2,30.29,SSE,150,0.0,5.0,32,0.00,,,0.00,Wunderground v.1.15,2013-01-05 19:37:00,
2013-01-05 12:42:00,57.3,26.1,30.29,SSE,150,2.0,2.0,30,0.00,,,0.00,Wunderground v.1.15,2013-01-05 19:42:00,
2013-01-05 12:47:00,57.3,26.1,30.29,SSE,150,1.0,2.0,30,0.00,,,0.00,Wunderground v.1.15,2013-01-05 19:47:00,
2013-01-05 12:53:00,57.3,25.3,30.29,SSE,150,0.0,2.0,29,0.00,,,0.00,Wunderground v.1.15,2013-01-05 19:53:00,
2013-01-05 12:58:00,57.3,24.4,30.28,SSE,150,0.0,5.0,28,0.00,,,0.00,Wunderground v.1.15,2013-01-05 19:58:00,
2013-01-05 13:03:00,57.3,24.4,30.28,SSE,150,1.0,5.0,28,0.00,,,0.00,Wunderground v.1.15,2013-01-05 20:03:00,
2013-01-05 13:08:00,57.6,24.7,30.27,SSE,150,0.0,5.0,28,0.00,,,0.00,Wunderground v.1.15,2013-01-05 20:08:00,
2013-01-05 13:13:00,57.8,24.0,30.27,SSE,150,5.0,6.0,27,0.00,,,0.00,Wunderground v.1.15,2013-01-05 20:13:00,
2013-01-05 13:18:00,58.1,24.3,30.27,SSE,150,0.0,6.0,27,0.00,,,0.00,Wunderground v.1.15,2013-01-05 20:18:00,
2013-01-05 13:23:00,58.6,23.8,30.27,SSE,150,0.0,2.0,26,0.00,,,0.00,Wunderground v.1.15,2013-01-05 20:23:00,
2013-01-05 13:28:00,58.6,22.8,30.26,SSE,150,0.0,2.0,25,0.00,,,0.00,Wunderground v.1.15,2013-01-05 20:28:00,
2013-01-05 13:33:00,58.7,22.9,30.26,SSE,150,0.0,0.0,25,0.00,,,0.00,Wunderground v.1.15,2013-01-05 20:33:00,
2013-01-05 13:38:00,59.1,24.2,30.26,SSE,150,2.0,2.0,26,0.00,,,0.00,Wunderground v.1.15,2013-01-05 20:38:00,
2013-01-05 13:43:00,59.4,23.5,30.26,SSE,150,2.0,5.0,25,0.00,,,0.00,Wunderground v.1.15,2013-01-05 20:43:00,
2013-01-05 13:48:00,59.5,23.6,30.26,SSE,150,0.0,5.0,25,0.00,,,0.00,Wunderground v.1.15,2013-01-05 20:48:00,
2013-01-05 13:53:00,59.5,24.5,30.26,SSE,150,1.0,4.0,26,0.00,,,0.00,Wunderground v.1.15,2013-01-05 20:53:00,
2013-01-05 13:58:00,59.8,23.9,30.26,SSE,150,2.0,4.0,25,0.00,,,0.00,Wunderground v.1.15,2013-01-05 20:58:00,
2013-01-05 14:03:00,60.2,23.2,30.26,SSE,150,0.0,1.0,24,0.00,,,0.00,Wunderground v.1.15,2013-01-05 21:03:00,
2013-01-05 14:08:00,60.5,21.4,30.25,SSE,150,0.0,1.0,22,0.00,,,0.00,Wunderground v.1.15,2013-01-05 21:08:00,
2013-01-05 14:13:00,60.8,22.7,30.25,SSE,150,0.0,2.0,23,0.00,,,0.00,Wunderground v.1.15,2013-01-05 21:13:00,
2013-01-05 14:18:00,61.3,23.1,30.25,SSE,150,0.0,2.0,23,0.00,,,0.00,Wunderground v.1.15,2013-01-05 21:18:00,
2013-01-05 14:23:00,62.0,22.7,30.25,SSE,150,0.0,4.0,22,0.00,,,0.00,Wunderground v.1.15,2013-01-05 21:23:00,
2013-01-05 14:28:00,61.7,23.5,30.25,SSE,150,0.0,4.0,23,0.00,,,0.00,Wunderground v.1.15,2013-01-05 21:28:00,
2013-01-05 14:33:00,61.9,23.6,30.25,SSE,156,1.0,5.0,23,0.00,,,0.00,Wunderground v.1.15,2013-01-05 21:33:00,
2013-01-05 14:38:00,62.0,21.6,30.24,SSE,156,0.0,5.0,21,0.00,,,0.00,Wunderground v.1.15,2013-01-05 21:38:00,
2013-01-05 14:43:00,62.3,21.8,30.24,SSE,155,1.0,4.0,21,0.00,,,0.00,Wunderground v.1.15,2013-01-05 21:43:00,
2013-01-05 14:48:00,61.9,22.6,30.24,SSE,153,2.0,6.0,22,0.00,,,0.00,Wunderground v.1.15,2013-01-05 21:48:00,
2013-01-05 14:53:00,61.6,23.4,30.24,South,185,0.0,5.0,23,0.00,,,0.00,Wunderground v.1.15,2013-01-05 21:53:00,
2013-01-05 14:58:00,61.7,22.4,30.24,South,189,3.0,5.0,22,0.00,,,0.00,Wunderground v.1.15,2013-01-05 21:58:00,
2013-01-05 15:03:00,61.5,23.3,30.24,SSW,202,0.0,3.0,23,0.00,,,0.00,Wunderground v.1.15,2013-01-05 22:03:00,
2013-01-05 15:08:00,61.3,22.1,30.24,WSW,248,5.0,6.0,22,0.00,,,0.00,Wunderground v.1.15,2013-01-05 22:08:00,
2013-01-05 15:13:00,61.1,21.9,30.24,WSW,248,2.0,4.0,22,0.00,,,0.00,Wunderground v.1.15,2013-01-05 22:13:00,
2013-01-05 15:18:00,61.0,20.7,30.24,WSW,248,0.0,4.0,21,0.00,,,0.00,Wunderground v.1.15,2013-01-05 22:18:00,
2013-01-05 15:23:00,60.9,22.8,30.24,WSW,248,3.0,4.0,23,0.00,,,0.00,Wunderground v.1.15,2013-01-05 22:23:00,
2013-01-05 15:28:00,60.7,22.6,30.24,WSW,251,5.0,5.0,23,0.00,,,0.00,Wunderground v.1.15,2013-01-05 22:28:00,
2013-01-05 15:33:00,60.6,22.6,30.24,WSW,254,2.0,5.0,23,0.00,,,0.00,Wunderground v.1.15,2013-01-05 22:33:00,
2013-01-05 15:38:00,60.5,21.4,30.24,WSW,258,3.0,6.0,22,0.00,,,0.00,Wunderground v.1.15,2013-01-05 22:38:00,
2013-01-05 15:43:00,60.4,21.3,30.24,WSW,258,1.0,5.0,22,0.00,,,0.00,Wunderground v.1.15,2013-01-05 22:43:00,
2013-01-05 15:48:00,60.4,21.3,30.23,WSW,258,2.0,5.0,22,0.00,,,0.00,Wunderground v.1.15,2013-01-05 22:48:00,
2013-01-05 15:53:00,60.5,22.5,30.23,WSW,258,3.0,4.0,23,0.00,,,0.00,Wunderground v.1.15,2013-01-05 22:53:00,
2013-01-05 15:58:00,60.5,21.4,30.24,WSW,258,0.0,5.0,22,0.00,,,0.00,Wunderground v.1.15,2013-01-05 22:58:00,
2013-01-05 16:03:00,60.5,22.5,30.23,WSW,258,1.0,4.0,23,0.00,,,0.00,Wunderground v.1.15,2013-01-05 23:03:00,
2013-01-05 16:08:00,60.6,22.6,30.23,WSW,258,2.0,4.0,23,0.00,,,0.00,Wunderground v.1.15,2013-01-05 23:08:00,
2013-01-05 16:13:00,60.5,23.5,30.23,WSW,258,1.0,3.0,24,0.00,,,0.00,Wunderground v.1.15,2013-01-05 23:13:00,
2013-01-05 16:18:00,60.5,23.5,30.24,West,261,3.0,6.0,24,0.00,,,0.00,Wunderground v.1.15,2013-01-05 23:18:00,
2013-01-05 16:23:00,60.4,23.4,30.24,West,261,0.0,3.0,24,0.00,,,0.00,Wunderground v.1.15,2013-01-05 23:23:00,
2013-01-05 16:28:00,60.2,23.2,30.24,West,261,2.0,5.0,24,0.00,,,0.00,Wunderground v.1.15,2013-01-05 23:28:00,
2013-01-05 16:33:00,60.1,23.1,30.24,West,261,0.0,3.0,24,0.00,,,0.00,Wunderground v.1.15,2013-01-05 23:33:00,
2013-01-05 16:39:00,60.0,24.0,30.24,West,261,0.0,3.0,25,0.00,,,0.00,Wunderground v.1.15,2013-01-05 23:39:00,
2013-01-05 16:43:00,59.9,24.9,30.24,West,261,2.0,4.0,26,0.00,,,0.00,Wunderground v.1.15,2013-01-05 23:43:00,
2013-01-05 16:48:00,59.7,25.6,30.24,West,261,2.0,4.0,27,0.00,,,0.00,Wunderground v.1.15,2013-01-05 23:48:00,
2013-01-05 16:54:00,59.5,26.3,30.24,West,261,1.0,4.0,28,0.00,,,0.00,Wunderground v.1.15,2013-01-05 23:54:00,
2013-01-05 16:59:00,59.2,26.9,30.24,West,261,0.0,4.0,29,0.00,,,0.00,Wunderground v.1.15,2013-01-05 23:59:00,
2013-01-05 17:04:00,58.9,26.7,30.24,West,261,1.0,4.0,29,0.00,,,0.00,Wunderground v.1.15,2013-01-06 00:04:00,
2013-01-05 17:08:00,58.6,27.2,30.23,West,261,0.0,4.0,30,0.00,,,0.00,Wunderground v.1.15,2013-01-06 00:08:00,
2013-01-05 17:13:00,58.3,27.8,30.24,West,261,0.0,3.0,31,0.00,,,0.00,Wunderground v.1.15,2013-01-06 00:13:00,
2013-01-05 17:18:00,57.9,28.2,30.23,West,261,0.0,3.0,32,0.00,,,0.00,Wunderground v.1.15,2013-01-06 00:18:00,
2013-01-05 17:23:00,57.2,28.3,30.24,West,261,0.0,0.0,33,0.00,,,0.00,Wunderground v.1.15,2013-01-06 00:23:00,
2013-01-05 17:28:00,56.5,27.7,30.24,West,261,0.0,0.0,33,0.00,,,0.00,Wunderground v.1.15,2013-01-06 00:28:00,
2013-01-05 17:34:00,55.8,27.8,30.24,West,261,0.0,0.0,34,0.00,,,0.00,Wunderground v.1.15,2013-01-06 00:34:00,
2013-01-05 17:39:00,55.3,28.1,30.23,West,261,0.0,0.0,35,0.00,,,0.00,Wunderground v.1.15,2013-01-06 00:39:00,
2013-01-05 17:44:00,54.8,27.6,30.23,West,261,0.0,0.0,35,0.00,,,0.00,Wunderground v.1.15,2013-01-06 00:44:00,
2013-01-05 17:49:00,54.3,27.9,30.23,West,261,0.0,0.0,36,0.00,,,0.00,Wunderground v.1.15,2013-01-06 00:49:00,
2013-01-05 17:54:00,53.5,27.2,30.23,West,261,0.0,0.0,36,0.00,,,0.00,Wunderground v.1.15,2013-01-06 00:54:00,
2013-01-05 17:59:00,52.8,27.2,30.23,West,261,0.0,0.0,37,0.00,,,0.00,Wunderground v.1.15,2013-01-06 00:59:00,
2013-01-05 18:04:00,52.3,27.4,30.23,West,261,0.0,0.0,38,0.00,,,0.00,Wunderground v.1.15,2013-01-06 01:04:00,
2013-01-05 18:09:00,51.6,26.8,30.24,West,261,0.0,0.0,38,0.00,,,0.00,Wunderground v.1.15,2013-01-06 01:09:00,
2013-01-05 18:14:00,50.8,26.7,30.23,West,261,0.0,0.0,39,0.00,,,0.00,Wunderground v.1.15,2013-01-06 01:14:00,
2013-01-05 18:19:00,50.0,27.2,30.23,West,261,0.0,0.0,41,0.00,,,0.00,Wunderground v.1.15,2013-01-06 01:19:00,
2013-01-05 18:24:00,49.3,27.2,30.23,West,261,0.0,0.0,42,0.00,,,0.00,Wunderground v.1.15,2013-01-06 01:24:00,
2013-01-05 18:29:00,48.7,27.2,30.24,West,261,0.0,0.0,43,0.00,,,0.00,Wunderground v.1.15,2013-01-06 01:29:00,
2013-01-05 18:34:00,48.2,26.7,30.24,West,261,0.0,0.0,43,0.00,,,0.00,Wunderground v.1.15,2013-01-06 01:34:00,
2013-01-05 18:39:00,47.9,27.0,30.24,West,261,0.0,0.0,44,0.00,,,0.00,Wunderground v.1.15,2013-01-06 01:39:00,
2013-01-05 18:44:00,47.3,27.0,30.24,West,261,0.0,0.0,45,0.00,,,0.00,Wunderground v.1.15,2013-01-06 01:44:00,
2013-01-05 18:49:00,46.5,26.8,30.24,West,261,0.0,0.0,46,0.00,,,0.00,Wunderground v.1.15,2013-01-06 01:49:00,
2013-01-05 18:54:00,46.1,26.4,30.24,West,261,0.0,0.0,46,0.00,,,0.00,Wunderground v.1.15,2013-01-06 01:54:00,
2013-01-05 18:59:00,45.8,26.2,30.24,West,261,0.0,0.0,46,0.00,,,0.00,Wunderground v.1.15,2013-01-06 01:59:00,
2013-01-05 19:04:00,45.3,26.2,30.24,West,261,0.0,0.0,47,0.00,,,0.00,Wunderground v.1.15,2013-01-06 02:04:00,
2013-01-05 19:09:00,44.6,26.1,30.24,West,261,0.0,0.0,48,0.00,,,0.00,Wunderground v.1.15,2013-01-06 02:09:00,
2013-01-05 19:14:00,43.9,25.5,30.24,West,261,0.0,0.0,48,0.00,,,0.00,Wunderground v.1.15,2013-01-06 02:14:00,
2013-01-05 19:19:00,43.4,25.0,30.24,West,261,0.0,0.0,48,0.00,,,0.00,Wunderground v.1.15,2013-01-06 02:19:00,
2013-01-05 19:24:00,42.9,25.0,30.24,West,261,0.0,0.0,49,0.00,,,0.00,Wunderground v.1.15,2013-01-06 02:24:00,
2013-01-05 19:29:00,42.5,25.1,30.24,West,261,0.0,0.0,50,0.00,,,0.00,Wunderground v.1.15,2013-01-06 02:29:00,
2013-01-05 19:34:00,42.2,24.9,30.24,West,261,0.0,0.0,50,0.00,,,0.00,Wunderground v.1.15,2013-01-06 02:34:00,
2013-01-05 19:40:00,42.2,24.9,30.24,West,261,0.0,0.0,50,0.00,,,0.00,Wunderground v.1.15,2013-01-06 02:40:00,
2013-01-05 19:45:00,42.3,25.0,30.24,West,261,0.0,0.0,50,0.00,,,0.00,Wunderground v.1.15,2013-01-06 02:45:00,
2013-01-05 19:50:00,42.3,25.0,30.24,West,261,0.0,0.0,50,0.00,,,0.00,Wunderground v.1.15,2013-01-06 02:50:00,
2013-01-05 19:55:00,42.3,24.5,30.24,West,261,0.0,0.0,49,0.00,,,0.00,Wunderground v.1.15,2013-01-06 02:55:00,
2013-01-05 20:00:00,42.1,24.3,30.24,West,261,0.0,0.0,49,0.00,,,0.00,Wunderground v.1.15,2013-01-06 03:00:00,
2013-01-05 20:05:00,42.0,24.2,30.24,West,261,0.0,0.0,49,0.00,,,0.00,Wunderground v.1.15,2013-01-06 03:05:00,
2013-01-05 20:10:00,41.8,24.5,30.24,West,261,0.0,0.0,50,0.00,,,0.00,Wunderground v.1.15,2013-01-06 03:10:00,
2013-01-05 20:15:00,41.4,25.1,30.24,West,261,0.0,0.0,52,0.00,,,0.00,Wunderground v.1.15,2013-01-06 03:15:00,
2013-01-05 20:20:00,41.2,24.9,30.24,West,261,0.0,0.0,52,0.00,,,0.00,Wunderground v.1.15,2013-01-06 03:20:00,
2013-01-05 20:25:00,41.2,25.3,30.24,West,261,0.0,0.0,53,0.00,,,0.00,Wunderground v.1.15,2013-01-06 03:25:00,
2013-01-05 20:30:00,41.2,25.3,30.25,West,261,0.0,0.0,53,0.00,,,0.00,Wunderground v.1.15,2013-01-06 03:30:00,
2013-01-05 20:35:00,41.0,25.6,30.25,West,261,0.0,0.0,54,0.00,,,0.00,Wunderground v.1.15,2013-01-06 03:35:00,
2013-01-05 20:40:00,40.6,25.2,30.25,West,261,0.0,0.0,54,0.00,,,0.00,Wunderground v.1.15,2013-01-06 03:40:00,
2013-01-05 20:45:00,40.4,25.9,30.25,West,261,0.0,0.0,56,0.00,,,0.00,Wunderground v.1.15,2013-01-06 03:45:00,
2013-01-05 20:50:00,40.2,25.7,30.24,West,261,0.0,0.0,56,0.00,,,0.00,Wunderground v.1.15,2013-01-06 03:50:00,
2013-01-05 20:55:00,40.1,25.6,30.24,West,261,0.0,0.0,56,0.00,,,0.00,Wunderground v.1.15,2013-01-06 03:55:00,
2013-01-05 21:00:00,39.8,25.8,30.24,West,261,0.0,0.0,57,0.00,,,0.00,Wunderground v.1.15,2013-01-06 04:00:00,
2013-01-05 21:05:00,39.4,25.8,30.24,West,261,0.0,0.0,58,0.00,,,0.00,Wunderground v.1.15,2013-01-06 04:05:00,
2013-01-05 21:10:00,39.0,25.9,30.24,West,261,0.0,0.0,59,0.00,,,0.00,Wunderground v.1.15,2013-01-06 04:10:00,
2013-01-05 21:15:00,38.8,25.7,30.24,West,261,0.0,0.0,59,0.00,,,0.00,Wunderground v.1.15,2013-01-06 04:15:00,
2013-01-05 21:20:00,38.7,26.0,30.24,West,261,0.0,0.0,60,0.00,,,0.00,Wunderground v.1.15,2013-01-06 04:20:00,
2013-01-05 21:26:00,38.7,26.0,30.24,West,261,0.0,0.0,60,0.00,,,0.00,Wunderground v.1.15,2013-01-06 04:26:00,
2013-01-05 21:31:00,38.7,26.0,30.24,West,261,0.0,0.0,60,0.00,,,0.00,Wunderground v.1.15,2013-01-06 04:31:00,
2013-01-05 21:36:00,38.5,25.8,30.24,West,261,0.0,0.0,60,0.00,,,0.00,Wunderground v.1.15,2013-01-06 04:36:00,
2013-01-05 21:41:00,38.4,26.1,30.24,West,261,0.0,0.0,61,0.00,,,0.00,Wunderground v.1.15,2013-01-06 04:41:00,
2013-01-05 21:46:00,38.2,25.9,30.24,West,261,0.0,0.0,61,0.00,,,0.00,Wunderground v.1.15,2013-01-06 04:46:00,
2013-01-05 21:51:00,38.0,25.7,30.24,West,261,0.0,0.0,61,0.00,,,0.00,Wunderground v.1.15,2013-01-06 04:51:00,
2013-01-05 21:56:00,37.9,26.0,30.24,West,261,0.0,0.0,62,0.00,,,0.00,Wunderground v.1.15,2013-01-06 04:56:00,
2013-01-05 22:00:00,38.0,26.1,30.24,West,261,0.0,0.0,62,0.00,,,0.00,Wunderground v.1.15,2013-01-06 05:00:00,
2013-01-05 22:01:00,38.1,26.2,30.24,West,261,0.0,0.0,62,0.00,,,0.00,Wunderground v.1.15,2013-01-06 05:01:00,
2013-01-05 22:06:00,38.5,26.2,30.24,West,261,0.0,0.0,61,0.00,,,0.00,Wunderground v.1.15,2013-01-06 05:06:00,
2013-01-05 22:08:00,38.5,26.2,30.24,West,261,0.0,0.0,61,0.00,,,0.00,Wunderground v.1.15,2013-01-06 05:08:00,
2013-01-05 22:13:00,38.4,26.1,30.24,West,261,0.0,0.0,61,0.00,,,0.00,Wunderground v.1.15,2013-01-06 05:13:00,
2013-01-05 22:18:00,38.3,26.0,30.24,West,261,0.0,0.0,61,0.00,,,0.00,Wunderground v.1.15,2013-01-06 05:18:00,
2013-01-05 22:23:00,38.2,26.3,30.24,West,261,0.0,0.0,62,0.00,,,0.00,Wunderground v.1.15,2013-01-06 05:23:00,
2013-01-05 22:28:00,38.2,26.3,30.24,West,261,0.0,0.0,62,0.00,,,0.00,Wunderground v.1.15,2013-01-06 05:28:00,
2013-01-05 22:33:00,38.0,26.1,30.25,West,261,0.0,0.0,62,0.00,,,0.00,Wunderground v.1.15,2013-01-06 05:33:00,
2013-01-05 22:38:00,37.7,26.2,30.24,West,261,0.0,0.0,63,0.00,,,0.00,Wunderground v.1.15,2013-01-06 05:38:00,
2013-01-05 22:43:00,37.2,26.1,30.24,West,261,0.0,0.0,64,0.00,,,0.00,Wunderground v.1.15,2013-01-06 05:43:00,
2013-01-05 22:48:00,36.8,25.8,30.24,West,261,0.0,0.0,64,0.00,,,0.00,Wunderground v.1.15,2013-01-06 05:48:00,
2013-01-05 22:53:00,36.5,26.2,30.24,West,261,0.0,0.0,66,0.00,,,0.00,Wunderground v.1.15,2013-01-06 05:53:00,
2013-01-05 22:58:00,36.4,26.1,30.24,West,261,0.0,0.0,66,0.00,,,0.00,Wunderground v.1.15,2013-01-06 05:58:00,
2013-01-05 23:04:00,36.1,25.8,30.24,West,261,0.0,0.0,66,0.00,,,0.00,Wunderground v.1.15,2013-01-06 06:04:00,
2013-01-05 23:09:00,35.5,25.3,30.24,West,261,0.0,0.0,66,0.00,,,0.00,Wunderground v.1.15,2013-01-06 06:09:00,
2013-01-05 23:14:00,35.0,25.5,30.24,West,261,0.0,0.0,68,0.00,,,0.00,Wunderground v.1.15,2013-01-06 06:14:00,
2013-01-05 23:19:00,34.7,25.6,30.24,West,261,0.0,0.0,69,0.00,,,0.00,Wunderground v.1.15,2013-01-06 06:19:00,
2013-01-05 23:24:00,34.8,26.0,30.24,West,261,0.0,0.0,70,0.00,,,0.00,Wunderground v.1.15,2013-01-06 06:24:00,
2013-01-05 23:29:00,35.2,26.4,30.24,West,261,0.0,0.0,70,0.00,,,0.00,Wunderground v.1.15,2013-01-06 06:29:00,
2013-01-05 23:33:00,35.2,26.0,30.24,West,261,0.0,0.0,69,0.00,,,0.00,Wunderground v.1.15,2013-01-06 06:33:00,
2013-01-05 23:39:00,35.1,25.9,30.24,West,261,0.0,0.0,69,0.00,,,0.00,Wunderground v.1.15,2013-01-06 06:39:00,
2013-01-05 23:44:00,34.8,25.7,30.23,West,261,0.0,0.0,69,0.00,,,0.00,Wunderground v.1.15,2013-01-06 06:44:00,
2013-01-05 23:49:00,34.6,25.8,30.24,West,261,0.0,0.0,70,0.00,,,0.00,Wunderground v.1.15,2013-01-06 06:49:00,
2013-01-05 23:54:00,34.2,25.4,30.23,West,261,0.0,0.0,70,0.00,,,0.00,Wunderground v.1.15,2013-01-06 06:54:00,
2013-01-05 23:59:00,33.9,25.5,30.24,West,261,0.0,0.0,71,0.00,,,0.00,Wunderground v.1.15,2013-01-06 06:59:00,